Weather History for Akron, CO

Change the Weather History Date:

Friday, June 28, 2013

  Actual Average Record
Temperature  
Mean Temperature 81 °F 72 °F  
Max Temperature 94 °F 86 °F 101 °F (1963)
Min Temperature 67 °F 57 °F 46 °F (1952)
Degree Days  
Heating Degree Days 0    
Month to date heating degree days 25  
Cooling Degree Days 16    
Month to date cooling degree days 191  
Growing Degree Days 30 (Base 50)    
Moisture  
Dew Point 53 °F    
Average Humidity 48    
Maximum Humidity 73    
Minimum Humidity 22    
Precipitation  
Precipitation 0.00 in 0.07 in 1.83 in (1967)
Month to date precipitation 1.20 2.33  
Year to date precipitation 5.09 8.51  
Sea Level Pressure  
Sea Level Pressure 30.03 in    
Wind  
Wind Speed 12 mph (SE)    
Max Wind Speed 25 mph    
Max Gust Speed 37 mph    
Visibility 10 miles    
Events      
T = Trace of Precipitation, MM = Missing Value Source: NWS Daily Summary

Daily Weather History Graph

Daily Weather History Graph

Search for Another Location

Airport:

Trip Planner

Search our weather history database for the weather conditions in past years. The results will help you decide how hot, cold, wet, or windy it might be!

Date:

Astronomy

Jun. 28, 2013 Rise Set
Actual Time 5:25 AM MDT 8:26 PM MDT
Civil Twilight 4:53 AM MDT 8:59 PM MDT
Nautical Twilight 4:11 AM MDT 9:40 PM MDT
Astronomical Twilight 3:22 AM MDT 10:29 PM MDT
Moon 11:56 PM MDT (6/28) 11:36 AM MDT (6/28)
Length of Visible Light 16h 06m
Length of Day
15h 00m
Waning Gibbous, 65% of the Moon is Illuminated
Jun 28
Waning Gibbous
Jun 29
Last Quarter
Jul 8
New
Jul 15
First Quarter
Jul 22
Full

Hourly Weather History & Observations

Time (MDT) Temp. Heat Index Dew Point Humidity Pressure Visibility Wind Dir Wind Speed Gust Speed Precip Events Conditions
12:53 AM 69.1 °F - 55.9 °F 63% 30.08 in 10.0 mi SSE 11.5 mph - N/A   Clear
1:53 AM 69.1 °F - 55.9 °F 63% 30.08 in 10.0 mi South 11.5 mph 24.2 mph N/A   Clear
2:53 AM 68.0 °F - 57.9 °F 70% 30.09 in 10.0 mi SSW 15.0 mph - N/A   Clear
3:53 AM 66.9 °F - 57.0 °F 70% 30.07 in 10.0 mi SSW 8.1 mph - N/A   Clear
4:53 AM 68.0 °F - 57.0 °F 68% 30.06 in 10.0 mi South 8.1 mph - N/A   Clear
5:53 AM 69.1 °F - 59.0 °F 70% 30.06 in 10.0 mi South 9.2 mph - N/A   Clear
6:53 AM 68.0 °F - 59.0 °F 73% 30.08 in 10.0 mi East 4.6 mph - N/A   Clear
7:53 AM 75.0 °F - 61.0 °F 62% 30.07 in 10.0 mi SSE 6.9 mph - N/A   Clear
8:53 AM 81.0 °F 81.7 °F 61.0 °F 50% 30.06 in 10.0 mi South 10.4 mph - N/A   Clear
9:53 AM 87.1 °F - 52.0 °F 30% 30.05 in 10.0 mi SE 12.7 mph 19.6 mph N/A   Clear
10:53 AM 91.0 °F - 50.0 °F 24% 30.04 in 10.0 mi SE 15.0 mph 19.6 mph N/A   Clear
11:53 AM 90.0 °F - 52.0 °F 27% 30.03 in 10.0 mi East 13.8 mph 24.2 mph N/A   Clear
12:53 PM 93.0 °F - 50.0 °F 23% 30.00 in 10.0 mi SE 17.3 mph 25.3 mph N/A   Clear
1:53 PM 93.0 °F - 50.0 °F 23% 29.97 in 10.0 mi East 17.3 mph 24.2 mph N/A   Clear
2:53 PM 93.9 °F - 48.9 °F 21% 29.96 in 10.0 mi East 17.3 mph 26.5 mph N/A   Clear
3:53 PM 91.0 °F 88.5 °F 53.1 °F 27% 29.95 in 10.0 mi ENE 23.0 mph 36.8 mph N/A   Clear
4:53 PM 90.0 °F - 51.1 °F 26% 29.96 in 10.0 mi ENE 17.3 mph 26.5 mph N/A   Clear
5:53 PM 88.0 °F - 50.0 °F 27% 29.96 in 10.0 mi East 20.7 mph 28.8 mph N/A   Clear
6:53 PM 84.9 °F - 50.0 °F 30% 29.99 in 10.0 mi East 21.9 mph 28.8 mph N/A   Clear
7:53 PM 81.0 °F - 50.0 °F 34% 29.99 in 10.0 mi East 18.4 mph - N/A   Clear
8:53 PM 75.9 °F - 48.9 °F 38% 30.01 in 10.0 mi East 9.2 mph - N/A   Clear
9:53 PM 73.0 °F - 50.0 °F 44% 30.02 in 10.0 mi East 10.4 mph - N/A   Clear
10:53 PM 70.0 °F - 51.1 °F 51% 30.02 in 10.0 mi East 9.2 mph - N/A   Clear
11:53 PM 72.0 °F - 51.1 °F 48% 30.08 in 10.0 mi SW 10.4 mph - N/A   Mostly Cloudy